RCH22 KTCM-

Flight info

Callsign RCH22
Flight time N/A
Altitude VFR/095
Route VFR FF
Aircraft C17/H-SDE1E2FGHIJ5RTUWXY/LB1D1

Departure

Time 2026-05-07 00:28
Airport McChord Air Force Base (KTCM)

Arrival

Time N/A
Airport -
Time Latitude Longitude Altitude Speed Heading
2026-05-07 00:13 47.14723 -122.48180 279 ft 0 kts 212°
2026-05-07 00:22 47.14672 -122.48154 281 ft 16 kts 114°
2026-05-07 00:22 47.14605 -122.48100 284 ft 11 kts 180°
2026-05-07 00:22 47.14544 -122.48057 279 ft 12 kts 97°
2026-05-07 00:23 47.14510 -122.47983 280 ft 7 kts 159°
2026-05-07 00:23 47.14446 -122.47970 291 ft 11 kts 176°
2026-05-07 00:23 47.14366 -122.47968 289 ft 12 kts 180°
2026-05-07 00:23 47.14267 -122.47968 290 ft 16 kts 180°
2026-05-07 00:24 47.14145 -122.47970 297 ft 18 kts 180°
2026-05-07 00:24 47.14016 -122.47971 295 ft 19 kts 181°
2026-05-07 00:24 47.13878 -122.47973 295 ft 19 kts 180°
2026-05-07 00:24 47.13815 -122.47909 297 ft 9 kts 98°
2026-05-07 00:25 47.13827 -122.47846 296 ft 0 kts 69°
2026-05-07 00:26 47.13852 -122.47748 296 ft 15 kts 67°
2026-05-07 00:26 47.13875 -122.47650 294 ft 3 kts 46°
2026-05-07 00:27 47.13887 -122.47648 297 ft 0 kts
2026-05-07 00:27 47.13889 -122.47648 297 ft 8 kts
2026-05-07 00:27 47.14308 -122.47651 286 ft 110 kts 360°
2026-05-07 00:27 47.15330 -122.47659 590 ft 157 kts 357°
2026-05-07 00:28 47.16363 -122.47624 1772 ft 160 kts 357°
2026-05-07 00:28 47.17611 -122.47316 2337 ft 205 kts 19°
2026-05-07 00:28 47.18844 -122.46012 3083 ft 233 kts 40°
2026-05-07 00:28 47.20121 -122.44396 4132 ft 240 kts 39°
2026-05-07 00:29 47.21363 -122.42902 6067 ft 224 kts 35°
2026-05-07 00:29 47.22525 -122.41575 7764 ft 202 kts 32°
2026-05-07 00:30 47.27194 -122.36126 8581 ft 374 kts 36°
2026-05-07 00:30 47.29140 -122.33766 9151 ft 339 kts 37°
2026-05-07 00:30 47.30821 -122.31642 9439 ft 306 kts 37°
2026-05-07 00:30 47.32374 -122.29607 9458 ft 295 kts 38°
2026-05-07 00:31 47.33900 -122.27553 9505 ft 301 kts 39°
2026-05-07 00:31 47.35440 -122.25431 9503 ft 301 kts 39°
2026-05-07 00:31 47.36948 -122.23301 9499 ft 299 kts 40°
2026-05-07 00:31 47.38421 -122.21170 9506 ft 302 kts 41°
2026-05-07 00:32 47.39912 -122.18965 9510 ft 302 kts 41°
2026-05-07 00:32 47.41376 -122.16747 9496 ft 300 kts 42°
2026-05-07 00:32 47.42825 -122.14499 9494 ft 303 kts 43°
2026-05-07 00:32 47.44254 -122.12232 9501 ft 303 kts 43°
2026-05-07 00:33 47.45669 -122.09934 9499 ft 301 kts 44°
2026-05-07 00:33 47.47055 -122.07629 9494 ft 304 kts 45°
2026-05-07 00:33 47.48454 -122.05249 9507 ft 304 kts 45°
2026-05-07 00:33 47.49803 -122.02903 9488 ft 301 kts 45°
2026-05-07 00:34 47.51147 -122.00519 9485 ft 305 kts 46°
2026-05-07 00:34 47.52497 -121.98064 9482 ft 304 kts 47°
2026-05-07 00:34 47.53788 -121.95652 9485 ft 302 kts 49°
2026-05-07 00:34 47.54996 -121.93068 9485 ft 306 kts 53°
2026-05-07 00:35 47.56130 -121.90399 9486 ft 305 kts 54°
2026-05-07 00:35 47.57244 -121.87717 9498 ft 306 kts 55°
2026-05-07 00:35 47.58349 -121.85041 9493 ft 307 kts 55°
2026-05-07 00:35 47.59467 -121.82328 9492 ft 305 kts 55°
2026-05-07 00:36 47.60559 -121.79676 9489 ft 306 kts 55°
2026-05-07 00:36 47.61680 -121.76953 9503 ft 307 kts 55°
2026-05-07 00:36 47.62780 -121.74281 9480 ft 306 kts 54°
2026-05-07 00:36 47.63889 -121.71569 9478 ft 306 kts 56°
2026-05-07 00:37 47.64865 -121.68731 9479 ft 311 kts 64°
2026-05-07 00:37 47.65553 -121.65727 9484 ft 311 kts 72°
2026-05-07 00:37 47.66170 -121.62637 9468 ft 309 kts 60°
2026-05-07 00:37 47.67319 -121.59964 9485 ft 306 kts 48°
2026-05-07 00:38 47.68651 -121.57517 9484 ft 305 kts 45°
2026-05-07 00:38 47.69948 -121.55024 9463 ft 303 kts 52°
2026-05-07 00:38 47.71090 -121.52392 9465 ft 309 kts 54°
2026-05-07 00:38 47.72222 -121.49669 9478 ft 307 kts 54°
2026-05-07 00:39 47.73318 -121.47009 9425 ft 304 kts 55°
2026-05-07 00:39 47.74431 -121.44289 9428 ft 308 kts 55°
2026-05-07 00:39 47.75533 -121.41589 9434 ft 306 kts 54°
2026-05-07 00:39 47.76627 -121.38877 9435 ft 305 kts 55°
2026-05-07 00:40 47.77721 -121.36127 9437 ft 312 kts 54°
2026-05-07 00:40 47.78807 -121.33400 8958 ft 295 kts 58°
2026-05-07 00:40 47.79814 -121.30695 6113 ft 295 kts 54°
2026-05-07 00:40 47.81414 -121.29063 4169 ft 262 kts 10°
2026-05-07 00:41 47.82959 -121.29595 3878 ft 229 kts 333°
2026-05-07 00:41 47.84467 -121.30468 3634 ft 241 kts 338°
2026-05-07 00:41 47.86080 -121.31329 3419 ft 252 kts 338°
2026-05-07 00:41 47.87741 -121.32215 3257 ft 250 kts 338°
2026-05-07 00:42 47.89458 -121.32383 2838 ft 261 kts 17°
2026-05-07 00:42 47.90980 -121.31173 2248 ft 228 kts 25°
2026-05-07 00:42 47.92571 -121.30838 2685 ft 239 kts 343°
2026-05-07 00:42 47.94284 -121.31023 3387 ft 266 kts
2026-05-07 00:43 47.96222 -121.30980 4492 ft 259 kts 356°
2026-05-07 00:43 47.97921 -121.31203 6124 ft 222 kts 351°
2026-05-07 00:43 47.99547 -121.31033 3302 ft 294 kts 14°
2026-05-07 00:43 48.01457 -121.30175 2932 ft 282 kts 15°
2026-05-07 00:44 48.03336 -121.29646 2775 ft 250 kts
2026-05-07 00:44 48.04971 -121.28967 2652 ft 240 kts 17°
2026-05-07 00:44 48.06639 -121.29143 2565 ft 248 kts 334°
2026-05-07 00:44 48.07924 -121.30805 2678 ft 263 kts 312°
2026-05-07 00:45 48.09182 -121.33016 2642 ft 280 kts 299°
2026-05-07 00:45 48.09612 -121.35277 2490 ft 196 kts 281°
2026-05-07 00:45 48.09884 -121.37249 2154 ft 195 kts 280°
2026-05-07 00:45 48.10331 -121.39156 1812 ft 196 kts 300°
2026-05-07 00:46 48.11375 -121.40399 1657 ft 188 kts 328°
2026-05-07 00:46 48.12439 -121.41356 1836 ft 166 kts 326°
2026-05-07 00:46 48.13331 -121.42284 1906 ft 155 kts 321°
2026-05-07 00:46 48.14315 -121.43465 1900 ft 198 kts 320°
2026-05-07 00:47 48.15334 -121.44471 2341 ft 163 kts 324°
2026-05-07 00:47 48.16314 -121.45406 2076 ft 172 kts 325°
2026-05-07 00:47 48.17265 -121.46472 1956 ft 168 kts 315°
2026-05-07 00:47 48.18001 -121.47813 1939 ft 171 kts 304°
2026-05-07 00:48 48.18732 -121.49316 1881 ft 185 kts 304°
2026-05-07 00:48 48.19517 -121.50926 1812 ft 196 kts 305°
2026-05-07 00:48 48.20299 -121.52542 1714 ft 183 kts 304°
2026-05-07 00:48 48.21019 -121.54019 1556 ft 170 kts 304°
2026-05-07 00:49 48.21708 -121.55417 1479 ft 166 kts 304°
2026-05-07 00:49 48.22398 -121.56821 1463 ft 167 kts 304°
2026-05-07 00:49 48.23090 -121.58222 1450 ft 170 kts 304°
2026-05-07 00:49 48.23804 -121.59625 1444 ft 167 kts 310°
2026-05-07 00:50 48.24751 -121.60661 1451 ft 170 kts 332°
2026-05-07 00:50 48.25924 -121.60922 1449 ft 173 kts
2026-05-07 00:50 48.27041 -121.60269 1453 ft 179 kts 33°
2026-05-07 00:50 48.27875 -121.58885 1441 ft 180 kts 70°
2026-05-07 00:51 48.28215 -121.57109 1460 ft 181 kts 73°
2026-05-07 00:51 48.28757 -121.55398 1456 ft 182 kts 56°
2026-05-07 00:51 48.29497 -121.53840 1445 ft 189 kts 51°
2026-05-07 00:51 48.30291 -121.52321 1465 ft 179 kts 49°
2026-05-07 00:52 48.31026 -121.50938 2110 ft 164 kts 50°
2026-05-07 00:52 48.31751 -121.49567 3091 ft 172 kts 50°
2026-05-07 00:52 48.32498 -121.48162 4013 ft 169 kts 50°
2026-05-07 00:52 48.33234 -121.46791 2663 ft 183 kts 49°
2026-05-07 00:53 48.34482 -121.45886 1507 ft 230 kts 345°
2026-05-07 00:53 48.35771 -121.47365 1245 ft 223 kts 309°
2026-05-07 00:53 48.36664 -121.49598 892 ft 289 kts 280°
2026-05-07 00:53 48.36424 -121.52951 727 ft 366 kts 265°
2026-05-07 00:54 48.35840 -121.56972 1469 ft 393 kts 255°
2026-05-07 00:54 48.35187 -121.60830 2658 ft 340 kts 255°
2026-05-07 00:54 48.34026 -121.63587 1295 ft 294 kts 210°
2026-05-07 00:54 48.31909 -121.63976 1345 ft 345 kts 174°
2026-05-07 00:55 48.29227 -121.63579 1052 ft 427 kts 176°
2026-05-07 00:55 48.27118 -121.65095 1169 ft 302 kts 258°
2026-05-07 00:55 48.27221 -121.67857 818 ft 270 kts 278°
2026-05-07 00:55 48.27525 -121.71087 797 ft 354 kts 276°
2026-05-07 00:56 48.27801 -121.75105 774 ft 402 kts 275°
2026-05-07 00:56 48.28021 -121.79113 1186 ft 368 kts 273°
2026-05-07 00:56 48.28169 -121.82516 5101 ft 304 kts 272°
2026-05-07 00:56 48.28276 -121.85452 8478 ft 262 kts 274°
2026-05-07 00:57 48.28362 -121.87976 11386 ft 221 kts 274°
2026-05-07 00:57 48.28443 -121.90436 12367 ft 264 kts 274°
2026-05-07 00:57 48.28544 -121.93504 12403 ft 323 kts 273°
2026-05-07 00:57 48.28664 -121.97156 12554 ft 374 kts 273°
2026-05-07 00:58 48.28794 -122.01233 12781 ft 402 kts 273°
2026-05-07 00:58 48.28908 -122.05203 12967 ft 359 kts 273°
2026-05-07 00:58 48.28998 -122.08748 13098 ft 323 kts 272°
2026-05-07 00:58 48.29073 -122.11960 12502 ft 284 kts 272°
2026-05-07 00:59 48.29235 -122.18429 4962 ft 344 kts 272°
2026-05-07 00:59 48.29330 -122.21727 4224 ft 281 kts 272°
2026-05-07 00:59 48.29405 -122.24391 3671 ft 249 kts 271°
2026-05-07 01:00 48.29761 -122.26914 3143 ft 250 kts 297°
2026-05-07 01:00 48.30692 -122.29067 2776 ft 242 kts 302°
2026-05-07 01:00 48.31594 -122.31131 2544 ft 224 kts 301°
2026-05-07 01:00 48.32399 -122.32977 2487 ft 206 kts 301°
2026-05-07 01:01 48.33248 -122.34691 2452 ft 210 kts 313°
2026-05-07 01:01 48.34593 -122.35673 2243 ft 221 kts 347°
2026-05-07 01:01 48.36100 -122.36092 2276 ft 218 kts 349°
2026-05-07 01:01 48.37506 -122.36492 2782 ft 199 kts 349°
2026-05-07 01:02 48.38960 -122.36902 2998 ft 217 kts 347°
2026-05-07 01:02 48.40235 -122.37350 3000 ft 214 kts 345°
2026-05-07 01:02 48.41688 -122.37868 2987 ft 212 kts 345°
2026-05-07 01:02 48.43155 -122.37923 2952 ft 215 kts 21°
2026-05-07 01:03 48.44111 -122.36339 2980 ft 213 kts 76°
2026-05-07 01:03 48.44038 -122.34167 3008 ft 207 kts 104°
2026-05-07 01:03 48.43721 -122.32039 3003 ft 207 kts 108°
2026-05-07 01:03 48.42861 -122.30458 2973 ft 197 kts 159°
2026-05-07 01:04 48.41560 -122.30692 2990 ft 199 kts 214°
2026-05-07 01:04 48.40934 -122.32515 3022 ft 202 kts 261°
2026-05-07 01:04 48.40833 -122.34657 3003 ft 206 kts 264°
2026-05-07 01:04 48.40518 -122.36691 3000 ft 200 kts 251°
2026-05-07 01:05 48.40053 -122.38693 2987 ft 204 kts 243°
2026-05-07 01:05 48.38987 -122.39933 2954 ft 197 kts 190°
2026-05-07 01:05 48.37730 -122.39259 2979 ft 202 kts 135°
2026-05-07 01:05 48.37056 -122.37413 3007 ft 206 kts 115°
2026-05-07 01:06 48.36486 -122.35417 3000 ft 207 kts 115°
2026-05-07 01:06 48.36355 -122.33296 2964 ft 211 kts 72°
2026-05-07 01:06 48.37391 -122.31844 2980 ft 216 kts 16°
2026-05-07 01:06 48.38819 -122.32219 2983 ft 211 kts 321°
2026-05-07 01:07 48.39461 -122.34093 3003 ft 204 kts 272°
2026-05-07 01:07 48.39445 -122.36220 3013 ft 208 kts 265°
2026-05-07 01:07 48.39397 -122.38383 3001 ft 203 kts 265°
2026-05-07 01:07 48.39337 -122.40511 2997 ft 203 kts 264°
2026-05-07 01:08 48.39128 -122.42589 2992 ft 202 kts 256°
2026-05-07 01:08 48.38831 -122.44724 2658 ft 209 kts 256°
2026-05-07 01:08 48.38558 -122.46792 2527 ft 197 kts 256°
2026-05-07 01:08 48.38121 -122.48716 2360 ft 196 kts 240°
2026-05-07 01:09 48.37414 -122.50466 2158 ft 194 kts 236°
2026-05-07 01:09 48.36740 -122.52097 1964 ft 174 kts 236°
2026-05-07 01:09 48.36146 -122.53591 1647 ft 169 kts 238°
2026-05-07 01:09 48.35793 -122.54720 1422 ft 192 kts 247°
2026-05-07 01:10 48.35530 -122.57575 928 ft 204 kts 263°
2026-05-07 01:10 48.35469 -122.58965 791 ft 198 kts 264°
2026-05-07 01:10 48.35363 -122.61698 635 ft 204 kts 266°
2026-05-07 01:10 48.35323 -122.62914 404 ft 161 kts 263°
2026-05-07 01:11 48.35228 -122.64506 41 ft 138 kts 268°
2026-05-07 01:11 48.35182 -122.65832 164 ft 133 kts 266°
2026-05-07 01:11 48.35113 -122.67454 576 ft 184 kts 264°
2026-05-07 01:11 48.35016 -122.69602 1031 ft 213 kts 265°
2026-05-07 01:12 48.34677 -122.71628 1481 ft 191 kts 230°
2026-05-07 01:12 48.33545 -122.72549 1493 ft 197 kts 180°
2026-05-07 01:12 48.32225 -122.71645 1336 ft 237 kts 135°
2026-05-07 01:12 48.31216 -122.69490 1490 ft 260 kts 108°
2026-05-07 01:13 48.31135 -122.66844 1943 ft 259 kts 88°
2026-05-07 01:13 48.31191 -122.64151 1890 ft 250 kts 89°
2026-05-07 01:13 48.31225 -122.61674 2054 ft 227 kts 91°
2026-05-07 01:13 48.31225 -122.59486 2294 ft 183 kts 90°
2026-05-07 01:14 48.31572 -122.57889 2463 ft 152 kts 56°
2026-05-07 01:14 48.32455 -122.57118 2301 ft 148 kts 16°
2026-05-07 01:14 48.33458 -122.56748 2106 ft 150 kts 12°
2026-05-07 01:14 48.34538 -122.56839 1854 ft 183 kts 338°
2026-05-07 01:15 48.35435 -122.58425 2018 ft 218 kts 285°
2026-05-07 01:15 48.35464 -122.60454 2105 ft 188 kts 263°
2026-05-07 01:15 48.35389 -122.62211 1253 ft 172 kts 261°
2026-05-07 01:15 48.35274 -122.63906 303 ft 152 kts 264°
2026-05-07 01:16 48.35205 -122.65306 37 ft 110 kts 266°
2026-05-07 01:16 48.35150 -122.66699 48 ft 167 kts 266°
2026-05-07 01:16 48.35090 -122.68693 551 ft 210 kts 265°
2026-05-07 01:16 48.34896 -122.71026 1529 ft 226 kts 240°
2026-05-07 01:17 48.33771 -122.72353 2296 ft 203 kts 198°
2026-05-07 01:17 48.32300 -122.72477 2099 ft 225 kts 168°
2026-05-07 01:17 48.30949 -122.71286 2078 ft 235 kts 133°
2026-05-07 01:17 48.30173 -122.69079 1954 ft 251 kts 106°
2026-05-07 01:18 48.30082 -122.66467 1946 ft 249 kts 87°
2026-05-07 01:18 48.30205 -122.63886 1917 ft 245 kts 85°
2026-05-07 01:18 48.30367 -122.61295 1945 ft 259 kts 85°
2026-05-07 01:18 48.30684 -122.58544 2058 ft 275 kts 70°
2026-05-07 01:19 48.31827 -122.56267 2128 ft 281 kts 36°
2026-05-07 01:19 48.33657 -122.55425 1916 ft 278 kts 354°
2026-05-07 01:19 48.35429 -122.56865 1845 ft 318 kts 304°
2026-05-07 01:19 48.36020 -122.59992 1814 ft 318 kts 270°
2026-05-07 01:20 48.36051 -122.63325 2067 ft 323 kts 266°
2026-05-07 01:20 48.35869 -122.66794 1750 ft 344 kts 262°
2026-05-07 01:20 48.35539 -122.70372 1831 ft 348 kts 259°
2026-05-07 01:20 48.35037 -122.73946 2172 ft 351 kts 255°
2026-05-07 01:21 48.34437 -122.77258 3251 ft 286 kts 253°
2026-05-07 01:21 48.33915 -122.79844 3989 ft 239 kts 253°
2026-05-07 01:21 48.33442 -122.82146 3905 ft 215 kts 253°
2026-05-07 01:21 48.33031 -122.84130 3816 ft 195 kts 253°
2026-05-07 01:22 48.32621 -122.86138 3907 ft 204 kts 254°
2026-05-07 01:22 48.31954 -122.87952 3857 ft 210 kts 215°
2026-05-07 01:22 48.30577 -122.88757 4018 ft 213 kts 197°
2026-05-07 01:22 48.29114 -122.89103 3907 ft 217 kts 172°
2026-05-07 01:23 48.27909 -122.87871 3834 ft 216 kts 116°
2026-05-07 01:23 48.27395 -122.85717 4083 ft 226 kts 106°
2026-05-07 01:23 48.27256 -122.83391 3983 ft 226 kts 69°
2026-05-07 01:23 48.28199 -122.81772 3921 ft 208 kts 21°
2026-05-07 01:24 48.29592 -122.80955 4090 ft 219 kts 16°
2026-05-07 01:24 48.31016 -122.80200 4004 ft 213 kts 16°
2026-05-07 01:24 48.32399 -122.79487 3998 ft 213 kts 15°
2026-05-07 01:24 48.33834 -122.78769 3999 ft 215 kts 15°
2026-05-07 01:25 48.35237 -122.78071 3993 ft 213 kts 15°
2026-05-07 01:25 48.36676 -122.77358 3685 ft 219 kts 15°
2026-05-07 01:25 48.37908 -122.76171 3219 ft 216 kts 58°
2026-05-07 01:25 48.38077 -122.74011 2769 ft 212 kts 117°
2026-05-07 01:26 48.37017 -122.72632 2445 ft 204 kts 173°
2026-05-07 01:26 48.35624 -122.72463 2173 ft 205 kts 167°
2026-05-07 01:26 48.34294 -122.71718 2062 ft 203 kts 159°
2026-05-07 01:26 48.33021 -122.70783 2036 ft 205 kts 155°
2026-05-07 01:27 48.31748 -122.69813 2002 ft 206 kts 155°
2026-05-07 01:27 48.30507 -122.68772 1920 ft 196 kts 144°
2026-05-07 01:27 48.29799 -122.67271 1842 ft 163 kts 108°
2026-05-07 01:27 48.29908 -122.65532 1542 ft 180 kts 68°
2026-05-07 01:28 48.30710 -122.64049 1225 ft 188 kts 30°
2026-05-07 01:28 48.31992 -122.63520 683 ft 197 kts 355°
2026-05-07 01:28 48.33304 -122.64221 241 ft 212 kts 334°
2026-05-07 01:28 48.34562 -122.65112 34 ft 153 kts 334°
2026-05-07 01:29 48.35221 -122.65576 35 ft 70 kts 335°
2026-05-07 01:29 48.35624 -122.65860 31 ft 63 kts 335°
2026-05-07 01:29 48.35996 -122.66121 31 ft 55 kts 336°
2026-05-07 01:29 48.36106 -122.66328 28 ft 12 kts 231°
2026-05-07 01:30 48.36045 -122.66475 29 ft 21 kts 229°
2026-05-07 01:30 48.35938 -122.66587 30 ft 18 kts 212°
2026-05-07 01:30 48.35843 -122.66664 30 ft 14 kts 206°
2026-05-07 01:30 48.35754 -122.66737 29 ft 17 kts 210°
2026-05-07 01:31 48.35649 -122.66822 30 ft 16 kts 208°
2026-05-07 01:31 48.35557 -122.66898 30 ft 14 kts 208°
2026-05-07 01:31 48.35474 -122.66965 30 ft 15 kts 208°
2026-05-07 01:31 48.35366 -122.67054 30 ft 18 kts 210°
2026-05-07 01:32 48.35262 -122.67140 30 ft 16 kts 205°
2026-05-07 01:32 48.35169 -122.67161 31 ft 12 kts 180°
2026-05-07 01:32 48.34973 -122.67140 29 ft 23 kts 147°
2026-05-07 01:32 48.34853 -122.67013 28 ft 19 kts 144°
2026-05-07 01:33 48.34803 -122.66960 30 ft 0 kts 146°